Weather Roundup
Issued by NWS

Home | Current Version | Previous Version | Text Only | Print | Product List | Glossary On
Versions: 1 2 3 4 5 6 7 8 9 10 11 12 13 14 15 16 17 18 19 20 21 22 23 24 25 26 27 28 29 30 31 32 33 34 35 36 37 38 39 40 41 42 43 44 45 46 47 48 49 50
000
NZUS93 KARX 210459
HRRWXR

CURRENT HOURLY OBSERVATIONS ACROSS
MUCH OF THE UPPER MISSISSIPPI VALLEY
NATIONAL WEATHER SERVICE LA CROSSE WI
1200 AM CDT SAT OCT 21 2017


...SOUTHEAST MINNESOTA...


CITY           SKY/WX    TMP DP  RH WIND       PRES   REMARKS
ROCHESTER      CLOUDY    62  49  62 S24G32    29.81F
ROCHESTER/MAYO FAIR      63  47  56 SE17G28   29.81S
WINONA         PTCLDY    68  46  45 S13G20    29.84S
AUSTIN         CLOUDY    63  48  59 S17G26    29.81S
ALBERT LEA     NOT AVBL
DODGE CENTER   CLOUDY    63  48  59 S24       29.80R
PRESTON        CLOUDY    61  47  59 S14G24    29.84F
OWATONNA       CLOUDY    63  52  67 S18G25    29.76F
FARIBAULT      MOCLDY    63  54  72 S15G22    29.76S
$$

...ELSEWHERE IN MINNESOTA...


CITY           SKY/WX    TMP DP  RH WIND       PRES   REMARKS
MINNEAPOLIS    CLOUDY    67  53  61 S15G24    29.74R
INTNL FALLS    MOCLDY    67  46  47 S12G21    29.58R
DULUTH         CLOUDY    62  46  55 S15G24    29.73S
RED WING       PTCLDY    66  45  45 S9G20     29.78R
REDWOOD FALLS  CLOUDY    65  54  67 S20       29.62S
MANKATO        PTCLDY    65  54  67 S17G28    29.71F
WORTHINGTON    MOCLDY    64  56  75 S22G30    29.65S
FAIRMONT       CLOUDY    64  55  72 S25G35    29.70F
$$

...SOUTHWEST WISCONSIN...


CITY           SKY/WX    TMP DP  RH WIND       PRES   REMARKS
LA CROSSE      CLOUDY    67  46  47 S18       29.86S
PRAIRIE DU CHI MOCLDY    66  44  44 SE9       29.90F
BOSCOBEL       MOCLDY    68  45  43 S7        29.92F
LONE ROCK      NOT AVBL
PLATTEVILLE    CLOUDY    65  47  51 S14       29.96S
FORT MC COY    CLOUDY    67  45  45 S12       29.90S
MAUSTON-NEW LI CLOUDY    68  45  43 S12G21    29.91S
VIROQUA        FAIR      64  46  51 S13G20    29.91F
WIS DELLS      CLOUDY    66  42  40 S17G26    29.94S
$$

...ELSEWHERE IN WISCONSIN...


CITY           SKY/WX    TMP DP  RH WIND       PRES   REMARKS
MILWAUKEE      CLOUDY    67  47  48 S13       30.03R
MADISON        CLOUDY    65  45  48 S9        29.98R
GREEN BAY      CLOUDY    61  51  70 S8        29.96S
EAU CLAIRE     NOT AVBL
BLACK RVR FLS  FAIR      68  38  33 S9G16     29.87S
MEDFORD        PTCLDY    60  45  58 S10       29.88S
WAUSAU         PTCLDY    63  46  54 S13       29.90R
WIS RAPIDS     CLOUDY    66  46  48 S8        29.92S
MARSHFIELD     CLOUDY    61  44  53 S8        29.89S
RICE LAKE      PTCLDY    61  45  54 SE5       29.81S
$$

...NORTHEAST IOWA...


CITY           SKY/WX    TMP DP  RH WIND       PRES   REMARKS
WATERLOO       CLOUDY    61  48  62 S16       29.86S
DUBUQUE        CLOUDY    62  47  57 S14       29.95S
DECORAH        PTCLDY    63  46  55 S10G17    29.87S
MASON CITY     CLOUDY    61  50  67 S18G26    29.81F
CHARLES CITY   CLOUDY    63  48  59 S14G21    29.86R
OELWEIN        CLOUDY    64  50  59 S17G23    29.89F
$$

...ELSEWHERE IN IOWA...


CITY           SKY/WX    TMP DP  RH WIND       PRES   REMARKS
DES MOINES     PTCLDY    63  52  67 S13       29.84S
IOWA CITY      PTCLDY    65  50  58 S12       29.94F
FORT DODGE     PTCLDY    62  53  72 S13G23    29.77F
MARSHALLTOWN   CLEAR     62  50  64 S16G23    29.85S
CEDAR RAPIDS   PTCLDY    63  49  60 S13       29.91S
$$

...NORTHERN ILLINOIS...


CITY           SKY/WX    TMP DP  RH WIND       PRES   REMARKS
CHICAGO-OHARE  CLOUDY    67  48  50 S16       30.05S
CHICAGO-MIDWAY CLOUDY    66  49  54 S12       30.06S
MOLINE         CLOUDY    68  49  50 S15G25    29.96S
ROCKFORD       CLOUDY    61  47  59 S9        30.03S
PEORIA         CLOUDY    63  51  65 S9        30.03F
$$

NOTE: "FAIR" INDICATES FEW OR NO CLOUDS BELOW 12,000 FEET WITH NO
SIGNIFICANT WEATHER AND/OR OBSTRUCTIONS TO VISIBILITY. WIND
SPEEDS ARE IN MILES-PER-HOUR.




USA.gov is the U.S. government's official web portal to all federal, state and local government web resources and services.